RYR89NR LHBP-EGSS

Flight info

Callsign RYR89NR
Flight time 2h 14m
Altitude 34000
Route GILEP DCT ZOLKU DCT BEGLA DCT UBUXI DCT DITIS DCT RAPET DCT MASEK DCT ARPEG DCT NOGRO M40 RINIS
Aircraft B738/M-SDE3FGILRWY/SB1

Departure

Time 2026-05-04 20:00
Airport Budapest Liszt Ferenc International Airport (LHBP)

Arrival

Time 2026-05-04 22:15
Airport London Stansted Airport (EGSS)
Time Latitude Longitude Altitude Speed Heading
2026-05-04 19:09 47.43354 19.25838 468 ft 0 kts 222°
2026-05-04 19:44 47.43371 19.25862 464 ft 4 kts 226°
2026-05-04 19:45 47.43389 19.25891 463 ft 4 kts 233°
2026-05-04 19:45 47.43404 19.25924 465 ft 4 kts 251°
2026-05-04 19:45 47.43406 19.25958 466 ft 3 kts 306°
2026-05-04 19:45 47.43404 19.25962 466 ft 1 kts 312°
2026-05-04 19:49 47.43405 19.25960 466 ft 1 kts 313°
2026-05-04 19:49 47.43418 19.25941 465 ft 4 kts 314°
2026-05-04 19:50 47.43444 19.25900 468 ft 7 kts 313°
2026-05-04 19:50 47.43486 19.25815 468 ft 13 kts 295°
2026-05-04 19:50 47.43554 19.25708 468 ft 14 kts 346°
2026-05-04 19:50 47.43635 19.25779 468 ft 14 kts 44°
2026-05-04 19:51 47.43705 19.25872 465 ft 13 kts 42°
2026-05-04 19:51 47.43772 19.25963 468 ft 13 kts 42°
2026-05-04 19:51 47.43835 19.26048 466 ft 9 kts 43°
2026-05-04 19:51 47.43843 19.26059 468 ft 0 kts 42°
2026-05-04 19:52 47.43844 19.26060 468 ft 1 kts 42°
2026-05-04 19:52 47.43874 19.26101 468 ft 12 kts 42°
2026-05-04 19:52 47.43965 19.26129 467 ft 19 kts 316°
2026-05-04 19:52 47.44057 19.25978 468 ft 20 kts 312°
2026-05-04 19:53 47.44147 19.25831 468 ft 19 kts 312°
2026-05-04 19:53 47.44234 19.25692 468 ft 15 kts 312°
2026-05-04 19:53 47.44294 19.25600 467 ft 12 kts 319°
2026-05-04 19:53 47.44365 19.25551 469 ft 11 kts 358°
2026-05-04 19:54 47.44379 19.25552 469 ft 0 kts
2026-05-04 19:54 47.44404 19.25557 469 ft 7 kts
2026-05-04 19:54 47.44449 19.25584 469 ft 7 kts 35°
2026-05-04 19:54 47.44467 19.25606 472 ft 0 kts 43°
2026-05-04 19:56 47.44469 19.25608 473 ft 2 kts 43°
2026-05-04 19:56 47.44490 19.25652 475 ft 6 kts 64°
2026-05-04 19:56 47.44503 19.25714 480 ft 6 kts 78°
2026-05-04 19:56 47.44505 19.25777 484 ft 7 kts 91°
2026-05-04 19:57 47.44484 19.25852 478 ft 9 kts 131°
2026-05-04 19:57 47.44482 19.25855 479 ft 0 kts 132°
2026-05-04 19:59 47.44476 19.25865 480 ft 5 kts 131°
2026-05-04 20:00 47.44311 19.26132 477 ft 71 kts 132°
2026-05-04 20:00 47.43817 19.26928 473 ft 136 kts 132°
2026-05-04 20:00 47.43052 19.28130 602 ft 177 kts 136°
2026-05-04 20:00 47.42194 19.29421 1470 ft 173 kts 131°
2026-05-04 20:01 47.41800 19.31124 2262 ft 186 kts 103°
2026-05-04 20:01 47.41406 19.32948 2964 ft 188 kts 124°
2026-05-04 20:01 47.40694 19.34559 3818 ft 183 kts 128°
2026-05-04 20:01 47.40020 19.36046 4884 ft 168 kts 127°
2026-05-04 20:02 47.39365 19.37566 5328 ft 192 kts 125°
2026-05-04 20:02 47.38560 19.39287 5557 ft 215 kts 138°
2026-05-04 20:02 47.37177 19.40227 5741 ft 231 kts 176°
2026-05-04 20:02 47.35564 19.39788 6017 ft 249 kts 207°
2026-05-04 20:03 47.34237 19.38034 6364 ft 267 kts 234°
2026-05-04 20:03 47.33242 19.35678 7108 ft 271 kts 238°
2026-05-04 20:03 47.32286 19.33281 7999 ft 272 kts 238°
2026-05-04 20:03 47.31317 19.30863 8820 ft 276 kts 238°
2026-05-04 20:04 47.30323 19.28419 9642 ft 280 kts 238°
2026-05-04 20:04 47.29307 19.25957 10372 ft 286 kts 237°
2026-05-04 20:04 47.28237 19.23386 10837 ft 300 kts 237°
2026-05-04 20:04 47.27127 19.20738 11509 ft 306 kts 237°
2026-05-04 20:05 47.26001 19.18060 12278 ft 310 kts 237°
2026-05-04 20:05 47.24857 19.15347 13042 ft 313 kts 237°
2026-05-04 20:05 47.23699 19.12607 13784 ft 318 kts 237°
2026-05-04 20:05 47.22538 19.09866 14448 ft 322 kts 237°
2026-05-04 20:06 47.21359 19.06992 15131 ft 326 kts 244°
2026-05-04 20:06 47.20875 19.03737 15757 ft 332 kts 272°
2026-05-04 20:06 47.21470 19.00505 16462 ft 335 kts 296°
2026-05-04 20:06 47.22732 18.97608 17168 ft 339 kts 304°
2026-05-04 20:07 47.24130 18.94788 17839 ft 343 kts 306°
2026-05-04 20:07 47.25556 18.91959 18488 ft 346 kts 305°
2026-05-04 20:07 47.26995 18.89089 19084 ft 349 kts 305°
2026-05-04 20:07 47.28430 18.86197 19729 ft 350 kts 305°
2026-05-04 20:08 47.29864 18.83283 20374 ft 352 kts 305°
2026-05-04 20:08 47.31301 18.80346 20977 ft 354 kts 304°
2026-05-04 20:08 47.32743 18.77384 21556 ft 357 kts 305°
2026-05-04 20:08 47.34197 18.74395 22126 ft 360 kts 305°
2026-05-04 20:09 47.35659 18.71382 22716 ft 363 kts 305°
2026-05-04 20:09 47.37131 18.68347 23303 ft 365 kts 305°
2026-05-04 20:09 47.38614 18.65286 23815 ft 368 kts 305°
2026-05-04 20:09 47.40111 18.62189 24270 ft 371 kts 305°
2026-05-04 20:10 47.41471 18.58949 24765 ft 372 kts 296°
2026-05-04 20:10 47.42413 18.55451 25273 ft 372 kts 287°
2026-05-04 20:10 47.43158 18.51775 25722 ft 375 kts 286°
2026-05-04 20:10 47.43880 18.48054 26136 ft 379 kts 286°
2026-05-04 20:11 47.44610 18.44305 26562 ft 381 kts 287°
2026-05-04 20:11 47.45356 18.40533 27005 ft 383 kts 287°
2026-05-04 20:11 47.46115 18.36744 27443 ft 385 kts 287°
2026-05-04 20:11 47.46882 18.32939 27879 ft 388 kts 287°
2026-05-04 20:12 47.47655 18.29101 28270 ft 390 kts 287°
2026-05-04 20:12 47.48430 18.25243 28682 ft 393 kts 287°
2026-05-04 20:12 47.49132 18.21337 29075 ft 395 kts 284°
2026-05-04 20:12 47.49777 18.17375 29459 ft 398 kts 284°
2026-05-04 20:13 47.50412 18.13370 29820 ft 401 kts 284°
2026-05-04 20:13 47.51053 18.09349 30172 ft 403 kts 284°
2026-05-04 20:13 47.51706 18.05305 30494 ft 405 kts 284°
2026-05-04 20:13 47.52365 18.01256 30824 ft 406 kts 284°
2026-05-04 20:14 47.53030 17.97192 31139 ft 407 kts 284°
2026-05-04 20:14 47.53698 17.93109 31452 ft 409 kts 284°
2026-05-04 20:14 47.54366 17.89015 31755 ft 410 kts 284°
2026-05-04 20:14 47.55035 17.84903 32042 ft 412 kts 284°
2026-05-04 20:15 47.55852 17.80835 32352 ft 413 kts 292°
2026-05-04 20:15 47.57098 17.77016 32634 ft 413 kts 301°
2026-05-04 20:15 47.58565 17.73355 32943 ft 414 kts 301°
2026-05-04 20:15 47.60057 17.69693 33220 ft 415 kts 301°
2026-05-04 20:16 47.61548 17.66024 33472 ft 417 kts 301°
2026-05-04 20:16 47.63040 17.62328 33729 ft 418 kts 301°
2026-05-04 20:16 47.64525 17.58617 33978 ft 420 kts 301°
2026-05-04 20:17 47.67503 17.51120 33997 ft 421 kts 301°
2026-05-04 20:17 47.70438 17.43688 33978 ft 414 kts 300°
2026-05-04 20:18 47.73341 17.36317 33983 ft 414 kts 300°
2026-05-04 20:18 47.76225 17.28977 33975 ft 414 kts 300°
2026-05-04 20:19 47.79127 17.21571 33965 ft 415 kts 300°
2026-05-04 20:19 47.82524 17.14636 33966 ft 415 kts 309°
2026-05-04 20:20 47.86227 17.08024 33949 ft 416 kts 308°
2026-05-04 20:20 47.89925 17.01377 33959 ft 416 kts 308°
2026-05-04 20:21 47.93592 16.94686 33957 ft 417 kts 308°
2026-05-04 20:21 47.99073 16.84592 33945 ft 417 kts 308°
2026-05-04 20:22 48.02722 16.77842 33943 ft 418 kts 308°
2026-05-04 20:22 48.06370 16.71078 33938 ft 418 kts 308°
2026-05-04 20:23 48.09990 16.64350 33951 ft 418 kts 307°
2026-05-04 20:23 48.13628 16.57573 33936 ft 417 kts 307°
2026-05-04 20:24 48.17255 16.50799 33938 ft 417 kts 307°
2026-05-04 20:24 48.20291 16.45116 33945 ft 416 kts 307°
2026-05-04 20:25 48.23902 16.38339 33935 ft 416 kts 307°
2026-05-04 20:25 48.27508 16.31556 33930 ft 416 kts 307°
2026-05-04 20:26 48.31113 16.24759 33921 ft 416 kts 307°
2026-05-04 20:26 48.34713 16.17951 33912 ft 416 kts 307°
2026-05-04 20:27 48.38291 16.11171 33919 ft 416 kts 306°
2026-05-04 20:27 48.41895 16.04323 33916 ft 417 kts 306°
2026-05-04 20:28 48.45495 15.97464 33908 ft 418 kts 306°
2026-05-04 20:28 48.49103 15.90572 33909 ft 419 kts 306°
2026-05-04 20:29 48.52713 15.83660 33907 ft 419 kts 306°
2026-05-04 20:29 48.56321 15.76733 33905 ft 420 kts 306°
2026-05-04 20:30 48.59932 15.69784 33910 ft 421 kts 306°
2026-05-04 20:30 48.63545 15.62812 33918 ft 422 kts 306°
2026-05-04 20:31 48.67165 15.55808 33913 ft 423 kts 306°
2026-05-04 20:31 48.70779 15.48797 33928 ft 423 kts 306°
2026-05-04 20:32 48.74376 15.41802 33920 ft 423 kts 305°
2026-05-04 20:32 48.77987 15.34761 33913 ft 423 kts 305°
2026-05-04 20:33 48.81596 15.27706 33913 ft 422 kts 305°
2026-05-04 20:33 48.85195 15.20653 33917 ft 422 kts 305°
2026-05-04 20:34 48.88786 15.13598 33923 ft 421 kts 305°
2026-05-04 20:34 48.92331 15.06508 33921 ft 421 kts 303°
2026-05-04 20:35 48.95792 14.99391 33911 ft 421 kts 303°
2026-05-04 20:35 48.99288 14.92174 33911 ft 421 kts 303°
2026-05-04 20:36 49.02766 14.84998 33906 ft 421 kts 303°
2026-05-04 20:36 49.06220 14.77864 33911 ft 420 kts 303°
2026-05-04 20:37 49.09689 14.70683 33920 ft 420 kts 303°
2026-05-04 20:37 49.13148 14.63505 33914 ft 420 kts 303°
2026-05-04 20:38 49.16609 14.56303 33915 ft 420 kts 303°
2026-05-04 20:38 49.20057 14.49107 33923 ft 420 kts 302°
2026-05-04 20:39 49.23501 14.41901 33917 ft 420 kts 302°
2026-05-04 20:39 49.26948 14.34669 33927 ft 420 kts 302°
2026-05-04 20:40 49.30395 14.27417 33931 ft 421 kts 302°
2026-05-04 20:40 49.33839 14.20152 33934 ft 421 kts 302°
2026-05-04 20:41 49.37258 14.12920 33935 ft 421 kts 302°
2026-05-04 20:41 49.40695 14.05631 33937 ft 421 kts 302°
2026-05-04 20:42 49.44122 13.98344 33939 ft 420 kts 302°
2026-05-04 20:42 49.47541 13.91052 33943 ft 420 kts 302°
2026-05-04 20:43 49.50959 13.83743 33952 ft 421 kts 302°
2026-05-04 20:43 49.54369 13.76430 33948 ft 421 kts 302°
2026-05-04 20:44 49.57781 13.69095 33940 ft 421 kts 302°
2026-05-04 20:44 49.61185 13.61755 33943 ft 421 kts 302°
2026-05-04 20:45 49.64590 13.54393 33945 ft 421 kts 302°
2026-05-04 20:45 49.67988 13.47025 33938 ft 422 kts 302°
2026-05-04 20:46 49.71383 13.39644 33941 ft 421 kts 302°
2026-05-04 20:46 49.74776 13.32249 33941 ft 421 kts 302°
2026-05-04 20:47 49.78138 13.24898 33943 ft 421 kts 302°
2026-05-04 20:47 49.81516 13.17491 33942 ft 421 kts 302°
2026-05-04 20:48 49.84893 13.10068 33950 ft 421 kts 301°
2026-05-04 20:48 49.88267 13.02630 33955 ft 421 kts 301°
2026-05-04 20:49 49.91630 12.95194 33958 ft 421 kts 301°
2026-05-04 20:49 49.94996 12.87734 33962 ft 421 kts 301°
2026-05-04 20:50 49.98347 12.80283 33965 ft 421 kts 301°
2026-05-04 20:50 50.01696 12.72816 33959 ft 421 kts 301°
2026-05-04 20:51 50.05036 12.65349 33964 ft 420 kts 301°
2026-05-04 20:51 50.08355 12.57906 33956 ft 420 kts 301°
2026-05-04 20:52 50.11680 12.50431 33958 ft 420 kts 301°
2026-05-04 20:52 50.15006 12.42934 33962 ft 420 kts 301°
2026-05-04 20:53 50.18304 12.35399 33956 ft 419 kts 297°
2026-05-04 20:53 50.20538 12.27113 33966 ft 413 kts 284°
2026-05-04 20:54 50.22278 12.18556 33976 ft 414 kts 284°
2026-05-04 20:54 50.24023 12.09974 33985 ft 415 kts 284°
2026-05-04 20:55 50.25791 12.01388 34024 ft 415 kts 284°
2026-05-04 20:55 50.27564 11.92804 34001 ft 415 kts 284°
2026-05-04 20:56 50.29323 11.84272 33991 ft 414 kts 284°
2026-05-04 20:56 50.31080 11.75708 33996 ft 412 kts 284°
2026-05-04 20:57 50.32823 11.67177 33989 ft 411 kts 284°
2026-05-04 20:57 50.34555 11.58663 33996 ft 410 kts 284°
2026-05-04 20:58 50.36276 11.50163 33985 ft 409 kts 283°
2026-05-04 20:58 50.37985 11.41687 33971 ft 407 kts 283°
2026-05-04 20:59 50.39683 11.33228 33954 ft 406 kts 283°
2026-05-04 20:59 50.41374 11.24767 33959 ft 406 kts 283°
2026-05-04 21:00 50.43056 11.16315 33974 ft 406 kts 283°
2026-05-04 21:00 50.44733 11.07852 33967 ft 406 kts 283°
2026-05-04 21:01 50.46382 10.99493 33954 ft 407 kts 283°
2026-05-04 21:01 50.48053 10.90987 33953 ft 408 kts 283°
2026-05-04 21:02 50.49706 10.82535 33961 ft 408 kts 283°
2026-05-04 21:02 50.51367 10.74002 33959 ft 408 kts 282°
2026-05-04 21:03 50.53024 10.65455 33972 ft 409 kts 282°
2026-05-04 21:03 50.54679 10.56878 33966 ft 410 kts 282°
2026-05-04 21:04 50.56331 10.48281 33969 ft 410 kts 282°
2026-05-04 21:04 50.57975 10.39681 33974 ft 411 kts 282°
2026-05-04 21:05 50.59618 10.31052 33969 ft 410 kts 282°
2026-05-04 21:05 50.61248 10.22453 33985 ft 410 kts 281°
2026-05-04 21:06 50.62871 10.13852 33971 ft 409 kts 281°
2026-05-04 21:06 50.64482 10.05274 33981 ft 408 kts 281°
2026-05-04 21:07 50.66074 9.96757 33973 ft 407 kts 281°
2026-05-04 21:07 50.67667 9.88194 33982 ft 406 kts 281°
2026-05-04 21:08 50.69252 9.79638 33988 ft 406 kts 281°
2026-05-04 21:08 50.70831 9.71076 33993 ft 406 kts 281°
2026-05-04 21:09 50.72136 9.63972 33993 ft 405 kts 281°
2026-05-04 21:09 50.73813 9.55449 33991 ft 408 kts 284°
2026-05-04 21:10 50.75754 9.47032 33998 ft 408 kts 285°
2026-05-04 21:10 50.77717 9.38619 34007 ft 408 kts 284°
2026-05-04 21:11 50.79649 9.30195 33992 ft 409 kts 284°
2026-05-04 21:11 50.81566 9.21736 33991 ft 408 kts 284°
2026-05-04 21:12 50.83462 9.13325 33987 ft 408 kts 284°
2026-05-04 21:12 50.85360 9.04863 33995 ft 408 kts 284°
2026-05-04 21:13 50.87247 8.96416 33993 ft 408 kts 284°
2026-05-04 21:13 50.89132 8.87952 33992 ft 407 kts 284°
2026-05-04 21:14 50.91009 8.79480 33994 ft 407 kts 284°
2026-05-04 21:14 50.92880 8.71008 33994 ft 407 kts 284°
2026-05-04 21:15 50.94747 8.62519 33991 ft 407 kts 284°
2026-05-04 21:15 50.96606 8.54030 33995 ft 407 kts 283°
2026-05-04 21:16 50.98444 8.45604 34007 ft 407 kts 283°
2026-05-04 21:16 51.00289 8.37119 34001 ft 406 kts 283°
2026-05-04 21:17 51.02114 8.28671 33997 ft 406 kts 283°
2026-05-04 21:17 51.03908 8.20151 33985 ft 405 kts 283°
2026-05-04 21:18 51.05677 8.11659 34011 ft 405 kts 283°
2026-05-04 21:18 51.07438 8.03193 34014 ft 404 kts 282°
2026-05-04 21:19 51.09195 7.94725 33993 ft 403 kts 282°
2026-05-04 21:19 51.10931 7.86326 33998 ft 401 kts 282°
2026-05-04 21:20 51.12669 7.77881 33989 ft 400 kts 282°
2026-05-04 21:20 51.14399 7.69445 33993 ft 400 kts 282°
2026-05-04 21:21 51.16119 7.61012 34011 ft 400 kts 282°
2026-05-04 21:21 51.17835 7.52566 33996 ft 402 kts 282°
2026-05-04 21:22 51.19553 7.44073 34004 ft 407 kts 282°
2026-05-04 21:22 51.21311 7.35316 34003 ft 420 kts 282°
2026-05-04 21:23 51.23098 7.26390 33991 ft 431 kts 282°
2026-05-04 21:23 51.24933 7.17203 33984 ft 440 kts 282°
2026-05-04 21:24 51.26797 7.07839 33982 ft 443 kts 282°
2026-05-04 21:24 51.28659 6.98438 33963 ft 444 kts 282°
2026-05-04 21:25 51.30512 6.89030 33961 ft 443 kts 282°
2026-05-04 21:25 51.32353 6.79634 33964 ft 443 kts 282°
2026-05-04 21:26 51.34183 6.70243 33969 ft 441 kts 282°
2026-05-04 21:26 51.36001 6.60866 33973 ft 442 kts 282°
2026-05-04 21:27 51.37806 6.51509 33965 ft 443 kts 282°
2026-05-04 21:27 51.39617 6.42075 33966 ft 443 kts 282°
2026-05-04 21:28 51.41414 6.32673 33965 ft 443 kts 282°
2026-05-04 21:28 51.43205 6.23251 33994 ft 443 kts 282°
2026-05-04 21:29 51.44988 6.13821 33976 ft 443 kts 282°
2026-05-04 21:29 51.46770 6.04353 33966 ft 444 kts 282°
2026-05-04 21:30 51.48550 5.94847 33965 ft 444 kts 282°
2026-05-04 21:30 51.50317 5.85361 33963 ft 444 kts 282°
2026-05-04 21:31 51.52948 5.71151 33975 ft 445 kts 282°
2026-05-04 21:32 51.54703 5.61604 33966 ft 445 kts 282°
2026-05-04 21:32 51.56451 5.52051 33965 ft 446 kts 282°
2026-05-04 21:33 51.58192 5.42482 33966 ft 446 kts 282°
2026-05-04 21:33 51.59925 5.32911 33965 ft 446 kts 282°
2026-05-04 21:34 51.61651 5.23327 33972 ft 446 kts 283°
2026-05-04 21:34 51.63370 5.13732 33965 ft 447 kts 283°
2026-05-04 21:35 51.65087 5.04095 33963 ft 447 kts 283°
2026-05-04 21:35 51.66783 4.94529 33966 ft 448 kts 283°
2026-05-04 21:36 51.68485 4.84874 33966 ft 448 kts 283°
2026-05-04 21:36 51.70179 4.75217 33965 ft 448 kts 283°
2026-05-04 21:37 51.71865 4.65548 33982 ft 448 kts 283°
2026-05-04 21:37 51.73544 4.55867 33980 ft 448 kts 283°
2026-05-04 21:38 51.75203 4.46256 33988 ft 448 kts 283°
2026-05-04 21:38 51.76866 4.36562 33989 ft 447 kts 283°
2026-05-04 21:39 51.78518 4.26878 33991 ft 447 kts 283°
2026-05-04 21:39 51.80162 4.17186 33988 ft 447 kts 283°
2026-05-04 21:40 51.81799 4.07486 33989 ft 447 kts 283°
2026-05-04 21:40 51.83426 3.97790 33988 ft 447 kts 283°
2026-05-04 21:41 51.85047 3.88075 34004 ft 447 kts 283°
2026-05-04 21:41 51.86647 3.78431 33995 ft 446 kts 283°
2026-05-04 21:42 51.88247 3.68733 34004 ft 446 kts 283°
2026-05-04 21:42 51.89839 3.59028 34003 ft 445 kts 283°
2026-05-04 21:43 51.91420 3.49337 34009 ft 445 kts 282°
2026-05-04 21:43 51.92990 3.39655 34020 ft 444 kts 282°
2026-05-04 21:44 51.94559 3.29939 33576 ft 449 kts 282°
2026-05-04 21:44 51.95343 3.25053 32957 ft 447 kts 282°
2026-05-04 21:44 51.96074 3.20175 32259 ft 444 kts 277°
2026-05-04 21:44 51.96403 3.15213 31525 ft 442 kts 269°
2026-05-04 21:45 51.96247 3.10244 30824 ft 440 kts 261°
2026-05-04 21:45 51.95889 3.05351 30332 ft 435 kts 261°
2026-05-04 21:45 51.95535 3.00561 29758 ft 432 kts 261°
2026-05-04 21:45 51.95188 2.95748 29185 ft 428 kts 261°
2026-05-04 21:46 51.94856 2.90985 28672 ft 422 kts 262°
2026-05-04 21:46 51.94535 2.86279 28134 ft 418 kts 262°
2026-05-04 21:46 51.94220 2.81631 27634 ft 413 kts 262°
2026-05-04 21:46 51.93908 2.77019 27106 ft 409 kts 262°
2026-05-04 21:47 51.93596 2.72461 26595 ft 406 kts 262°
2026-05-04 21:47 51.93284 2.67935 26088 ft 402 kts 262°
2026-05-04 21:47 51.92973 2.63447 25593 ft 399 kts 262°
2026-05-04 21:47 51.92667 2.58995 25084 ft 396 kts 263°
2026-05-04 21:48 51.92362 2.54578 24600 ft 393 kts 263°
2026-05-04 21:48 51.92059 2.50196 24115 ft 390 kts 263°
2026-05-04 21:48 51.91756 2.45832 23618 ft 389 kts 263°
2026-05-04 21:48 51.91454 2.41490 23050 ft 387 kts 263°
2026-05-04 21:49 51.91150 2.37169 22524 ft 384 kts 263°
2026-05-04 21:49 51.90848 2.32898 22031 ft 380 kts 263°
2026-05-04 21:49 51.90653 2.28649 21647 ft 376 kts 266°
2026-05-04 21:49 51.90556 2.24417 21269 ft 380 kts 268°
2026-05-04 21:50 51.90482 2.20098 20883 ft 388 kts 268°
2026-05-04 21:50 51.90405 2.15708 20484 ft 389 kts 267°
2026-05-04 21:50 51.90317 2.11345 20079 ft 385 kts 267°
2026-05-04 21:50 51.90222 2.07036 19690 ft 382 kts 267°
2026-05-04 21:51 51.90123 2.02806 19310 ft 382 kts 267°
2026-05-04 21:51 51.90017 1.98467 18930 ft 381 kts 267°
2026-05-04 21:51 51.89917 1.94194 18555 ft 377 kts 268°
2026-05-04 21:51 51.90125 1.90031 18139 ft 375 kts 279°
2026-05-04 21:52 51.90777 1.85957 17762 ft 373 kts 287°
2026-05-04 21:52 51.91646 1.82013 17428 ft 375 kts 282°
2026-05-04 21:52 51.92067 1.77703 17136 ft 399 kts 276°
2026-05-04 21:52 51.92410 1.73118 16776 ft 416 kts 276°
2026-05-04 21:53 51.92762 1.68505 16384 ft 413 kts 276°
2026-05-04 21:53 51.93129 1.63881 16043 ft 412 kts 276°
2026-05-04 21:53 51.93505 1.59293 15686 ft 411 kts 277°
2026-05-04 21:53 51.93889 1.54711 15343 ft 410 kts 277°
2026-05-04 21:54 51.94279 1.50103 15086 ft 415 kts 277°
2026-05-04 21:54 51.94670 1.45490 15058 ft 411 kts 277°
2026-05-04 21:54 51.95058 1.40910 15053 ft 410 kts 277°
2026-05-04 21:54 51.95445 1.36327 15046 ft 410 kts 277°
2026-05-04 21:55 51.95829 1.31753 15045 ft 409 kts 277°
2026-05-04 21:55 51.96495 1.27418 15028 ft 383 kts 293°
2026-05-04 21:55 51.97899 1.23957 15032 ft 357 kts 314°
2026-05-04 21:55 51.99843 1.21710 15047 ft 333 kts 334°
2026-05-04 21:56 52.01933 1.20407 14988 ft 314 kts 340°
2026-05-04 21:56 52.03991 1.19287 14547 ft 309 kts 338°
2026-05-04 21:56 52.05789 1.17512 14129 ft 301 kts 313°
2026-05-04 21:56 52.07057 1.14876 13782 ft 293 kts 303°
2026-05-04 21:57 52.08165 1.12109 13378 ft 291 kts 302°
2026-05-04 21:57 52.09218 1.09270 12993 ft 296 kts 293°
2026-05-04 21:57 52.09666 1.07166 12747 ft 296 kts 284°
2026-05-04 21:57 52.10286 1.02810 12279 ft 295 kts 282°
2026-05-04 21:58 52.10570 1.00656 12075 ft 293 kts 281°
2026-05-04 21:58 52.10991 0.97415 11772 ft 291 kts 281°
2026-05-04 21:58 52.11405 0.94204 11465 ft 289 kts 281°
2026-05-04 21:58 52.11715 0.91023 11137 ft 281 kts 267°
2026-05-04 21:59 52.11300 0.87978 10857 ft 273 kts 252°
2026-05-04 21:59 52.10712 0.85084 10561 ft 267 kts 251°
2026-05-04 21:59 52.10139 0.82239 10265 ft 262 kts 252°
2026-05-04 21:59 52.09591 0.79436 9973 ft 257 kts 252°
2026-05-04 22:00 52.09066 0.76679 9637 ft 253 kts 253°
2026-05-04 22:00 52.08560 0.73965 9316 ft 249 kts 253°
2026-05-04 22:00 52.08067 0.71291 9093 ft 246 kts 253°
2026-05-04 22:00 52.07591 0.68684 9050 ft 239 kts 253°
2026-05-04 22:01 52.07131 0.66153 9034 ft 228 kts 253°
2026-05-04 22:01 52.06691 0.63723 9033 ft 222 kts 254°
2026-05-04 22:01 52.06253 0.61298 9036 ft 220 kts 254°
2026-05-04 22:01 52.05822 0.58912 8839 ft 228 kts 254°
2026-05-04 22:02 52.05373 0.56422 8567 ft 230 kts 254°
2026-05-04 22:02 52.04921 0.53921 8289 ft 231 kts 254°
2026-05-04 22:02 52.04470 0.51427 8089 ft 227 kts 254°
2026-05-04 22:02 52.04033 0.49010 8056 ft 221 kts 255°
2026-05-04 22:03 52.03603 0.46631 8042 ft 218 kts 254°
2026-05-04 22:03 52.03173 0.44260 7882 ft 223 kts 255°
2026-05-04 22:03 52.02731 0.41824 7633 ft 225 kts 255°
2026-05-04 22:03 52.02291 0.39394 7386 ft 224 kts 255°
2026-05-04 22:04 52.01850 0.36972 7156 ft 223 kts 255°
2026-05-04 22:04 52.01416 0.34594 7071 ft 215 kts 255°
2026-05-04 22:04 52.00993 0.32276 7060 ft 213 kts 255°
2026-05-04 22:04 52.00573 0.29980 7045 ft 211 kts 255°
2026-05-04 22:05 52.00074 0.27751 7038 ft 213 kts 239°
2026-05-04 22:05 51.99157 0.25879 7056 ft 219 kts 227°
2026-05-04 22:05 51.98004 0.24090 7026 ft 233 kts 225°
2026-05-04 22:05 51.96812 0.22303 6764 ft 237 kts 224°
2026-05-04 22:06 51.95583 0.20470 6511 ft 237 kts 225°
2026-05-04 22:06 51.94389 0.18681 6254 ft 236 kts 225°
2026-05-04 22:06 51.93174 0.16852 6053 ft 233 kts 225°
2026-05-04 22:06 51.91994 0.15073 5869 ft 232 kts 225°
2026-05-04 22:07 51.90829 0.13313 5619 ft 232 kts 225°
2026-05-04 22:07 51.89650 0.11532 5365 ft 232 kts 225°
2026-05-04 22:07 51.88479 0.09768 5143 ft 227 kts 225°
2026-05-04 22:07 51.87330 0.08035 4744 ft 224 kts 225°
2026-05-04 22:08 51.86203 0.06339 4357 ft 218 kts 225°
2026-05-04 22:08 51.85114 0.04685 3980 ft 212 kts 225°
2026-05-04 22:08 51.84053 0.03064 3674 ft 207 kts 225°
2026-05-04 22:08 51.83019 0.01487 3392 ft 201 kts 225°
2026-05-04 22:09 51.82011 -0.00049 3138 ft 196 kts 224°
2026-05-04 22:09 51.81030 -0.01539 2850 ft 192 kts 223°
2026-05-04 22:09 51.79864 -0.02433 2545 ft 184 kts 178°
2026-05-04 22:09 51.78682 -0.01853 2524 ft 179 kts 143°
2026-05-04 22:10 51.77747 -0.00560 2491 ft 175 kts 133°
2026-05-04 22:10 51.76931 0.00874 2482 ft 172 kts 122°
2026-05-04 22:10 51.76465 0.02627 2496 ft 170 kts 97°
2026-05-04 22:10 51.76490 0.04504 2492 ft 167 kts 72°
2026-05-04 22:11 51.77127 0.06001 2528 ft 161 kts 46°
2026-05-04 22:11 51.77889 0.07369 2492 ft 165 kts 46°
2026-05-04 22:11 51.78704 0.08697 2497 ft 165 kts 44°
2026-05-04 22:11 51.79517 0.09946 2483 ft 159 kts 43°
2026-05-04 22:12 51.80325 0.11168 2381 ft 160 kts 43°
2026-05-04 22:12 51.81127 0.12378 2147 ft 152 kts 43°
2026-05-04 22:12 51.81882 0.13516 1993 ft 148 kts 43°
2026-05-04 22:12 51.82633 0.14646 1774 ft 146 kts 43°
2026-05-04 22:13 51.83371 0.15759 1554 ft 144 kts 43°
2026-05-04 22:13 51.84092 0.16846 1376 ft 144 kts 43°
2026-05-04 22:13 51.84830 0.17957 1168 ft 144 kts 43°
2026-05-04 22:13 51.85565 0.19061 954 ft 143 kts 43°
2026-05-04 22:14 51.86292 0.20160 738 ft 144 kts 43°
2026-05-04 22:14 51.87027 0.21264 546 ft 147 kts 45°
2026-05-04 22:14 51.87770 0.22386 349 ft 145 kts 44°
2026-05-04 22:14 51.88420 0.23359 338 ft 99 kts 43°
2026-05-04 22:15 51.88769 0.23889 339 ft 46 kts 44°
2026-05-04 22:15 51.88882 0.24246 348 ft 29 kts 70°
2026-05-04 22:15 51.88916 0.24450 354 ft 11 kts 84°
2026-05-04 22:15 51.88909 0.24572 354 ft 11 kts 64°
2026-05-04 22:16 51.88963 0.24659 353 ft 11 kts 42°
2026-05-04 22:16 51.89032 0.24763 358 ft 18 kts 43°
2026-05-04 22:16 51.89144 0.24932 359 ft 24 kts 43°
2026-05-04 22:16 51.89244 0.25134 355 ft 23 kts 58°
2026-05-04 22:17 51.89352 0.25313 351 ft 22 kts 43°
2026-05-04 22:17 51.89411 0.25490 351 ft 19 kts 123°
2026-05-04 22:17 51.89346 0.25651 356 ft 11 kts 127°
2026-05-04 22:17 51.89362 0.25727 353 ft 7 kts 42°
2026-05-04 22:18 51.89368 0.25737 351 ft 0 kts 43°